Rawlins, WY (82301)

12:59 PM MDT on September 02, 2015 (GMT -0600)
Highland Towne | | Change Station
CLOSE
Current Station
Personal Weather Station
Location: Rawlins, WY
Elevation: 6831 ft
Nearby Weather Stations
Active Advisory: Fire Weather Warning

Elev 6831 ft 41.82 °N, 107.22 °W | Updated 11 minutes ago

Clear
Clear
80.8 °F
Feels Like 79 °F
N
5.8
Wind Variable Wind from NW

Today
High -- | Low -- °F
--% Chance of Precip.
Yesterday
High -- | Low -- °F
Precip. -- in
6:35 AM 7:40 PM
Waning Gibbous, 78% visible
Pressure 29.86 in
Visibility 10.0 miles
Clouds Clear
Heat Index 79 °F
Dew Point 42 °F
Humidity 25%
Rainfall 0.00 in
Snow Depth Not available.
UV 10 out of 12
Pollen 10.10 out of 12
Air Quality Not available.
Flu Activity Not available.
METAR KRWL 021853Z AUTO 24014G23KT 10SM CLR 27/03 A3018 RMK AO2 SLP112 T02670028
Pressure 29.86 in
Visibility 10.0 miles
Clouds Clear
Heat Index 79 °F
Dew Point 42 °F
Humidity 25%
Rainfall 0.00 in
Snow Depth Not available.
UV 10 out of 12
Pollen 10.10 out of 12
Air Quality Not available.
Flu Activity Not available.
METAR KRWL 021853Z AUTO 24014G23KT 10SM CLR 27/03 A3018 RMK AO2 SLP112 T02670028

10-Day Weather Forecast

×

Almanac

Astronomy

Sep. 02, 2015 Rise Set
Actual Time
Civil Twilight
Nautical Twilight
Astronomical Twilight
Moon
Length of Visible Light
Length of Day
Tomorrow will be .
, % of the Moon is Illuminated

Today's Extremes

State Highs State Lows

Community

WunderPhotos

Upload Photos

1,851,793 photos uploaded!

WunderBlogs® & News

Nearby

Air Quality

  Air Quality AQ Index Pollutant
Not available.

Snow Depth

Station Depth Elevation

Earthquake Activity

City Distance Mag. Time & Date
Minimum magnitude displayed is 2.5.

Coastal Water Temperatures

Place Temperature

Stations

Nearby Weather Stations

Station Location Temp. Windchill Dew Point Humidity Wind Precip. Elev Updated Type
                   
Fire Weather Warning
Statement as of 3:05 AM MDT on September 02, 2015

... Red flag warning remains in effect from noon today to 7 PM MDT
this evening for gusty winds and low humidities for fire weather
zones 301... 302... 303... 304... 306 and 308...

* wind... west to southwest winds of 15 to 25 mph sustained with
gusts to 35 mph.

* Humidity... late morning to afternoon humidities falling into
the upper single digits to lower teens.

* Impacts... any fires that develop will likely spread rapidly.
Outdoor burning is not recommended Wednesday.

Precautionary/preparedness actions...

A red flag warning means that critical fire weather conditions
are either occurring now... or will shortly. A combination of
strong winds... low relative humidity... and warm temperatures may
lead to extreme fire behavior.



Rubin